Regional Weather Roundup
Issued by NWS Goodland, KS

Home | Current Version | Previous Version | Graphics & Text | Print | Product List | Glossary On
Versions: 1 2 3 4 5 6 7 8 9 10 11 12 13 14 15 16 17 18 19 20 21 22 23 24 25 26 27 28 29 30 31 32 33 34 35 36 37 38 39 40 41 42 43 44 45 46 47 48 49 50
000
ASUS43 KGLD 281908
RWRGLD

GOODLAND FORECAST AREA HOURLY WEATHER ROUNDUP
NATIONAL WEATHER SERVICE GOODLAND KS
1200 PM MST WED JAN 28 2015

...OFFICIAL OBSERVATIONS...

CITY           SKY/WX    TMP DP  RH WIND       PRES   REMARKS
GOODLAND KS    SUNNY     64  28  25 NW32G41   29.94F
HILL CITY KS   MOSUNNY   68  31  25 NW30G39   29.84F
IMPERIAL NEB   SUNNY     64  29  26 NW28G45   29.88F
MCCOOK NEB     MOSUNNY   69  30  23 NW26G41   29.83F
AKRON CO       SUNNY     59  26  28 NW36G46   30.00F
BURLINGTON CO  SUNNY     61  28  28 NW30G38   29.99F
LIMON CO       SUNNY     57  20  23 NW23G35   30.05R
$$

...UNOFFICIAL OBSERVATIONS...

CITY           SKY/WX    TMP DP  RH WIND       PRES   REMARKS
COLBY KS       SUNNY     64  37  36 W33G41    29.90F
GOVE KS          N/A     68  32  26 MISG        N/A
NORTON KS      SUNNY     68  27  21 NW25G36   29.81F
SHARON SPRINGS   N/A     66  32  27 N24G33      N/A
KIT CARSON CO    N/A     64  28  25 MISG        N/A
YUMA CO          N/A     59  29  32 N31G43      N/A
$$


USA.gov is the U.S. government's official web portal to all federal, state and local government web resources and services.